Regional Weather Roundup
Issued by NWS Little Rock, AR

Home | Current Version | Previous Version | Text Only | Print | Product List | Glossary Off
Versions: 1 2 3 4 5 6 7 8 9 10 11 12 13 14 15 16 17 18 19 20 21 22 23 24 25 26 27 28 29 30 31 32 33 34 35 36 37 38 39 40 41 42 43 44 45 46 47 48 49 50

000
ASUS44 KLZK 262105
RWRLZK

WEATHER ROUNDUP FOR ARKANSAS
NATIONAL WEATHER SERVICE LITTLE ROCK AR
300 PM CST MON JAN 26 2015

NOTE: "FAIR" INDICATES FEW OR NO CLOUDS BELOW 12,000 FEET WITH NO
SIGNIFICANT WEATHER AND/OR OBSTRUCTIONS TO VISIBILITY.

ARZ001-003-010-029-262200-
NORTHWEST ARKANSAS

CITY           SKY/WX    TMP DP  RH WIND       PRES   REMARKS
FAYETTEVILLE   SUNNY     58  33  39 W9G20     29.97F
FORT SMITH     SUNNY     59  33  37 W8        30.00F
HARRISON       SUNNY     59  31  34 W12G17    29.92F
BENTONVILLE    SUNNY     57  32  38 W13       29.98S
ROGERS         SUNNY     57  33  40 W10       29.98R
SILOAM SPGS    SUNNY     61  34  36 W13G18    29.99S
HIGHFILL       SUNNY     59  33  37 W12G21    29.97R
SPRINGDALE     SUNNY     57  32  38 W13G21    29.98F
$$

ARZ004-005-016-262200-
NORTH CENTRAL ARKANSAS

CITY           SKY/WX    TMP DP  RH WIND       PRES   REMARKS
BATESVILLE     SUNNY     57  30  35 SW12      29.94F
FLIPPIN        SUNNY     57  30  35 SW9       29.92S
MTN HOME       SUNNY     57  30  35 VRB6      29.92F
$$

ARZ040-041-262200-
WEST CENTRAL ARKANSAS

CITY           SKY/WX    TMP DP  RH WIND       PRES   REMARKS
MENA           SUNNY     64  32  29 W12       30.00F
MOUNT IDA      SUNNY     66  30  26 MISG      29.97F
$$

ARZ009-017-025-026-028-262200-
NORTHEAST ARKANSAS

CITY           SKY/WX    TMP DP  RH WIND       PRES   REMARKS
CORNING          N/A     48  32  53 SW12      29.93F
JONESBORO      SUNNY     47  33  58 S13       29.95F
NEWPORT        SUNNY     55  31  40 SW13      29.96F
WALNUT RIDGE   SUNNY     52  30  43 SW10      29.93F
BLYTHEVILLE    MOSUNNY   44  32  62 SW13      29.97F
NW BLYTHEVILLE PTSUNNY   45  32  61 SW14      29.98F
$$

ARZ022-023-033-042-044-262200-
CENTRAL ARKANSAS

CITY           SKY/WX    TMP DP  RH WIND       PRES   REMARKS
LITTLE ROCK    SUNNY     60  27  28 W8        30.00F
N LITTLE ROCK  SUNNY     58  34  40 SW3       30.00F
JACKSONVILLE   SUNNY     58  31  35 W8        29.98F
SEARCY         SUNNY     57  32  38 SW9       29.99F
HOT SPRINGS    SUNNY     61  31  32 CALM      30.00F
RUSSELLVILLE   SUNNY     58  33  39 W6        29.98F
CLINTON        FAIR      57  32  38 S10G16    29.96F
$$

ARZ036-262200-
EAST ARKANSAS

CITY           SKY/WX    TMP DP  RH WIND       PRES   REMARKS
WEST MEMPHIS   SUNNY     48  34  58 SW9       29.99F
$$

ARZ050-053-066-070-073-262200-
SOUTHWEST ARKANSAS

CITY           SKY/WX    TMP DP  RH WIND       PRES   REMARKS
ARKADELPHIA    FAIR      62  37  39 SW8       30.03F
CAMDEN         SUNNY     63  28  27 CALM      30.04F
TEXARKANA      SUNNY     62  33  33 SW13      30.04F
EL DORADO      SUNNY     61  32  33 W6        30.05F
DE QUEEN       SUNNY     64  34  32 SW9       30.02F
$$

ARZ056-057-069-262200-
SOUTHEAST ARKANSAS

CITY           SKY/WX    TMP DP  RH WIND       PRES   REMARKS
PINE BLUFF     SUNNY     57  31  37 SW8       30.02F
STUTTGART      SUNNY     55  34  44 SW10      30.02F
MONTICELLO     SUNNY     56  31  38 SW6       30.03F

$$




USA.gov is the U.S. government's official web portal to all federal, state and local government web resources and services.